Time,TemperatureF,DewpointF,PressureIn,WindDirection,WindDirectionDegrees,WindSpeedMPH,WindSpeedGustMPH,Humidity,HourlyPrecipIn,Conditions,Clouds,dailyrainin,SoftwareType,DateUTC
2013-04-14 00:01:00,36.0,32.5,29.75,North,360,13.0,21.0,87,0.00,,,-99.99,Weather View 32 v60,2013-04-14 04:01:00,
2013-04-14 00:06:00,36.0,32.5,29.75,West,270,7.0,21.0,87,0.00,,,-99.99,Weather View 32 v60,2013-04-14 04:06:00,
2013-04-14 00:10:00,36.0,32.5,29.75,West,270,7.0,21.0,87,0.00,,,-99.99,Weather View 32 v60,2013-04-14 04:10:00,
2013-04-14 00:11:00,36.0,32.5,29.75,NW,315,9.0,21.0,87,0.00,,,-99.99,Weather View 32 v60,2013-04-14 04:11:00,
2013-04-14 00:16:00,36.0,32.5,29.76,North,360,6.0,21.0,87,0.00,,,-99.99,Weather View 32 v60,2013-04-14 04:16:00,
2013-04-14 00:21:00,36.0,32.5,29.76,NW,315,6.0,21.0,87,0.00,,,-99.99,Weather View 32 v60,2013-04-14 04:21:00,
2013-04-14 00:31:00,36.0,32.5,29.76,NW,315,7.0,21.0,87,0.00,,,-99.99,Weather View 32 v60,2013-04-14 04:31:00,
2013-04-14 00:36:00,36.0,32.5,29.76,NW,315,9.0,21.0,87,0.00,,,-99.99,Weather View 32 v60,2013-04-14 04:36:00,
2013-04-14 00:41:00,36.0,32.5,29.76,NW,315,10.0,21.0,87,0.00,,,-99.99,Weather View 32 v60,2013-04-14 04:41:00,
2013-04-14 00:46:00,36.0,32.5,29.76,NW,315,10.0,21.0,87,0.00,,,-99.99,Weather View 32 v60,2013-04-14 04:46:00,
2013-04-14 00:56:00,36.0,32.5,29.77,WNW,292,10.0,17.0,87,0.00,,,-99.99,Weather View 32 v60,2013-04-14 04:56:00,
2013-04-14 01:01:00,36.0,32.5,29.77,WNW,292,10.0,17.0,87,0.00,,,-99.99,Weather View 32 v60,2013-04-14 05:01:00,
2013-04-14 01:11:00,36.0,32.5,29.77,WNW,292,12.0,20.0,87,0.00,,,-99.99,Weather View 32 v60,2013-04-14 05:11:00,
2013-04-14 01:16:00,36.0,32.5,29.77,NW,315,9.0,20.0,87,0.00,,,-99.99,Weather View 32 v60,2013-04-14 05:16:00,
2013-04-14 01:26:00,36.0,32.5,29.77,WNW,292,9.0,23.0,87,0.00,,,-99.99,Weather View 32 v60,2013-04-14 05:26:00,
2013-04-14 01:31:00,36.0,32.5,29.77,NW,315,12.0,23.0,87,0.00,,,-99.99,Weather View 32 v60,2013-04-14 05:31:00,
2013-04-14 01:36:00,36.0,32.5,29.77,NW,315,12.0,23.0,87,0.00,,,-99.99,Weather View 32 v60,2013-04-14 05:36:00,
2013-04-14 01:41:00,36.0,32.5,29.77,NW,315,11.0,23.0,87,0.00,,,-99.99,Weather View 32 v60,2013-04-14 05:41:00,
2013-04-14 01:46:00,36.0,32.5,29.77,NW,315,13.0,23.0,87,0.00,,,-99.99,Weather View 32 v60,2013-04-14 05:46:00,
2013-04-14 01:51:00,36.0,32.5,29.77,NW,315,11.0,23.0,87,0.00,,,-99.99,Weather View 32 v60,2013-04-14 05:51:00,
2013-04-14 02:01:00,36.0,32.5,29.77,NW,315,10.0,23.0,87,0.00,,,-99.99,Weather View 32 v60,2013-04-14 06:01:00,
2013-04-14 02:06:00,36.0,32.5,29.77,NW,315,10.0,23.0,87,0.00,,,-99.99,Weather View 32 v60,2013-04-14 06:06:00,
2013-04-14 02:16:00,35.0,31.5,29.77,North,360,3.0,23.0,87,0.00,,,-99.99,Weather View 32 v60,2013-04-14 06:16:00,
2013-04-14 02:21:00,35.0,31.5,29.77,NNW,337,8.0,23.0,87,0.00,,,-99.99,Weather View 32 v60,2013-04-14 06:21:00,
2013-04-14 02:31:00,35.0,31.5,29.77,North,360,7.0,23.0,87,0.00,,,-99.99,Weather View 32 v60,2013-04-14 06:31:00,
2013-04-14 02:36:00,35.0,31.5,29.77,NW,315,16.0,23.0,87,0.00,,,-99.99,Weather View 32 v60,2013-04-14 06:36:00,
2013-04-14 02:41:00,35.0,31.5,29.77,NW,315,9.0,23.0,87,0.00,,,-99.99,Weather View 32 v60,2013-04-14 06:41:00,
2013-04-14 02:46:00,35.0,31.5,29.78,WNW,292,8.0,23.0,87,0.00,,,-99.99,Weather View 32 v60,2013-04-14 06:46:00,
2013-04-14 02:51:00,35.0,31.5,29.78,NW,315,9.0,23.0,87,0.00,,,-99.99,Weather View 32 v60,2013-04-14 06:51:00,
2013-04-14 02:56:00,35.0,31.5,29.78,NW,315,4.0,23.0,87,0.00,,,-99.99,Weather View 32 v60,2013-04-14 06:56:00,
2013-04-14 03:01:00,35.0,31.5,29.78,WNW,292,9.0,23.0,87,0.00,,,-99.99,Weather View 32 v60,2013-04-14 07:01:00,
2013-04-14 03:06:00,35.0,31.5,29.78,NW,315,13.0,23.0,87,0.00,,,-99.99,Weather View 32 v60,2013-04-14 07:06:00,
2013-04-14 03:12:00,35.0,31.5,29.78,NW,315,9.0,23.0,87,0.00,,,-99.99,Weather View 32 v60,2013-04-14 07:12:00,
2013-04-14 03:21:00,35.0,31.5,29.79,WNW,292,7.0,18.0,87,0.00,,,-99.99,Weather View 32 v60,2013-04-14 07:21:00,
2013-04-14 03:26:00,35.0,31.5,29.79,WNW,292,9.0,18.0,87,0.00,,,-99.99,Weather View 32 v60,2013-04-14 07:26:00,
2013-04-14 03:31:00,35.0,31.5,29.79,NW,315,8.0,18.0,87,0.00,,,-99.99,Weather View 32 v60,2013-04-14 07:31:00,
2013-04-14 03:41:00,35.0,31.5,29.79,NW,315,9.0,17.0,87,0.00,,,-99.99,Weather View 32 v60,2013-04-14 07:41:00,
2013-04-14 03:51:00,35.0,31.5,29.79,WNW,292,6.0,17.0,87,0.00,,,-99.99,Weather View 32 v60,2013-04-14 07:51:00,
2013-04-14 03:56:00,35.0,31.5,29.79,WNW,292,5.0,17.0,87,0.00,,,-99.99,Weather View 32 v60,2013-04-14 07:56:00,
2013-04-14 04:01:00,35.0,31.5,29.79,NW,315,6.0,17.0,87,0.00,,,-99.99,Weather View 32 v60,2013-04-14 08:01:00,
2013-04-14 04:06:00,35.0,31.5,29.79,NW,315,7.0,16.0,87,0.00,,,-99.99,Weather View 32 v60,2013-04-14 08:06:00,
2013-04-14 04:11:00,35.0,31.5,29.79,NW,315,10.0,16.0,87,0.00,,,-99.99,Weather View 32 v60,2013-04-14 08:11:00,
2013-04-14 04:21:00,35.0,31.5,29.79,NW,315,6.0,16.0,87,0.00,,,-99.99,Weather View 32 v60,2013-04-14 08:21:00,
2013-04-14 04:26:00,35.0,31.5,29.79,NW,315,7.0,16.0,87,0.00,,,-99.99,Weather View 32 v60,2013-04-14 08:26:00,
2013-04-14 04:31:00,35.0,31.5,29.79,NW,315,9.0,16.0,87,0.00,,,-99.99,Weather View 32 v60,2013-04-14 08:31:00,
2013-04-14 04:41:00,35.0,31.8,29.80,West,270,7.0,16.0,88,0.00,,,-99.99,Weather View 32 v60,2013-04-14 08:41:00,
2013-04-14 04:46:00,35.0,31.5,29.80,NW,315,6.0,16.0,87,0.00,,,-99.99,Weather View 32 v60,2013-04-14 08:46:00,
2013-04-14 04:51:00,35.0,32.1,29.80,NW,315,11.0,16.0,89,0.00,,,-99.99,Weather View 32 v60,2013-04-14 08:51:00,
2013-04-14 05:01:00,35.0,31.5,29.79,NW,315,4.0,16.0,87,0.00,,,-99.99,Weather View 32 v60,2013-04-14 09:01:00,
2013-04-14 05:11:00,35.0,31.5,29.79,NW,315,7.0,16.0,87,0.00,,,-99.99,Weather View 32 v60,2013-04-14 09:11:00,
2013-04-14 05:21:00,35.0,31.5,29.80,NW,315,4.0,14.0,87,0.00,,,-99.99,Weather View 32 v60,2013-04-14 09:21:00,
2013-04-14 05:31:00,35.0,31.5,29.80,NW,315,4.0,15.0,87,0.00,,,-99.99,Weather View 32 v60,2013-04-14 09:31:00,
2013-04-14 05:36:00,35.0,31.5,29.80,WNW,292,6.0,15.0,87,0.00,,,-99.99,Weather View 32 v60,2013-04-14 09:36:00,
2013-04-14 05:41:00,35.0,31.5,29.80,NW,315,10.0,15.0,87,0.00,,,-99.99,Weather View 32 v60,2013-04-14 09:41:00,
2013-04-14 05:51:00,35.0,31.5,29.81,NW,315,7.0,15.0,87,0.00,,,-99.99,Weather View 32 v60,2013-04-14 09:51:00,
2013-04-14 05:56:00,35.0,31.5,29.81,NW,315,7.0,15.0,87,0.00,,,-99.99,Weather View 32 v60,2013-04-14 09:56:00,
2013-04-14 06:01:00,35.0,31.5,29.81,NW,315,7.0,15.0,87,0.00,,,-99.99,Weather View 32 v60,2013-04-14 10:01:00,
2013-04-14 06:06:00,35.0,31.5,29.81,NW,315,4.0,15.0,87,0.00,,,-99.99,Weather View 32 v60,2013-04-14 10:06:00,
2013-04-14 06:13:00,35.0,31.5,29.81,NW,315,8.0,15.0,87,0.00,,,-99.99,Weather View 32 v60,2013-04-14 10:13:00,
2013-04-14 06:21:00,35.0,31.5,29.81,NW,315,4.0,15.0,87,0.00,,,-99.99,Weather View 32 v60,2013-04-14 10:21:00,
2013-04-14 06:26:00,35.0,31.5,29.81,NW,315,3.0,15.0,87,0.00,,,-99.99,Weather View 32 v60,2013-04-14 10:26:00,
2013-04-14 06:31:00,35.0,31.5,29.81,NW,315,3.0,15.0,87,0.00,,,-99.99,Weather View 32 v60,2013-04-14 10:31:00,
2013-04-14 06:36:00,35.0,31.5,29.81,NW,315,4.0,15.0,87,0.00,,,-99.99,Weather View 32 v60,2013-04-14 10:36:00,
2013-04-14 06:41:00,35.0,31.5,29.81,NW,315,9.0,15.0,87,0.00,,,-99.99,Weather View 32 v60,2013-04-14 10:41:00,
2013-04-14 06:51:00,35.0,31.5,29.82,West,270,1.0,13.0,87,0.00,,,-99.99,Weather View 32 v60,2013-04-14 10:51:00,
2013-04-14 06:56:00,35.0,31.5,29.82,West,270,0.0,11.0,87,0.00,,,-99.99,Weather View 32 v60,2013-04-14 10:56:00,
2013-04-14 07:01:00,35.0,31.5,29.82,West,270,2.0,11.0,87,0.00,,,-99.99,Weather View 32 v60,2013-04-14 11:01:00,
2013-04-14 07:06:00,35.0,31.5,29.82,West,270,0.0,10.0,87,0.00,,,-99.99,Weather View 32 v60,2013-04-14 11:06:00,
2013-04-14 07:11:00,35.0,31.5,29.82,West,270,0.0,10.0,87,0.00,,,-99.99,Weather View 32 v60,2013-04-14 11:11:00,
2013-04-14 07:16:00,35.0,31.5,29.82,West,270,0.0,10.0,87,0.00,,,-99.99,Weather View 32 v60,2013-04-14 11:16:00,
2013-04-14 07:21:00,35.0,31.2,29.82,East,90,4.0,10.0,86,0.00,,,-99.99,Weather View 32 v60,2013-04-14 11:21:00,
2013-04-14 07:26:00,35.0,31.5,29.82,East,90,3.0,10.0,87,0.00,,,-99.99,Weather View 32 v60,2013-04-14 11:26:00,
2013-04-14 07:31:00,34.0,30.5,29.82,East,90,4.0,10.0,87,0.00,,,-99.99,Weather View 32 v60,2013-04-14 11:31:00,
2013-04-14 07:41:00,34.0,30.8,29.83,East,90,2.0,10.0,88,0.00,,,-99.99,Weather View 32 v60,2013-04-14 11:41:00,
2013-04-14 07:51:00,34.0,30.8,29.83,East,90,0.0,8.0,88,0.00,,,-99.99,Weather View 32 v60,2013-04-14 11:51:00,
2013-04-14 07:56:00,34.0,30.8,29.82,East,90,0.0,8.0,88,0.00,,,-99.99,Weather View 32 v60,2013-04-14 11:56:00,
2013-04-14 08:01:00,34.0,30.8,29.82,East,90,4.0,8.0,88,0.00,,,-99.99,Weather View 32 v60,2013-04-14 12:01:00,
2013-04-14 08:11:00,33.0,29.8,29.83,East,90,4.0,9.0,88,0.00,,,-99.99,Weather View 32 v60,2013-04-14 12:11:00,
2013-04-14 08:21:00,33.0,29.8,29.83,NE,45,2.0,9.0,88,0.00,,,-99.99,Weather View 32 v60,2013-04-14 12:21:00,
2013-04-14 08:26:00,33.0,29.8,29.83,ENE,67,7.0,12.0,88,0.00,,,-99.99,Weather View 32 v60,2013-04-14 12:26:00,
2013-04-14 08:31:00,33.0,29.8,29.83,East,90,6.0,12.0,88,0.00,,,-99.99,Weather View 32 v60,2013-04-14 12:31:00,
2013-04-14 08:36:00,33.0,29.6,29.82,ESE,112,5.0,12.0,87,0.00,,,-99.99,Weather View 32 v60,2013-04-14 12:36:00,
2013-04-14 08:46:00,33.0,29.8,29.81,ENE,67,6.0,12.0,88,0.00,,,-99.99,Weather View 32 v60,2013-04-14 12:46:00,
2013-04-14 08:56:00,33.0,29.6,29.82,ESE,112,3.0,12.0,87,0.00,,,-99.99,Weather View 32 v60,2013-04-14 12:56:00,
2013-04-14 09:06:00,33.0,29.6,29.82,SSE,157,5.0,12.0,87,0.00,,,-99.99,Weather View 32 v60,2013-04-14 13:06:00,
2013-04-14 09:11:00,33.0,29.6,29.82,South,180,3.0,12.0,87,0.00,,,-99.99,Weather View 32 v60,2013-04-14 13:11:00,
2013-04-14 09:21:00,33.0,29.6,29.81,East,90,8.0,13.0,87,0.01,,,-99.99,Weather View 32 v60,2013-04-14 13:21:00,
2013-04-14 09:31:00,33.0,29.3,29.79,ESE,112,7.0,14.0,86,0.01,,,-99.99,Weather View 32 v60,2013-04-14 13:31:00,
2013-04-14 09:36:00,33.0,29.3,29.79,SE,135,7.0,16.0,86,0.01,,,-99.99,Weather View 32 v60,2013-04-14 13:36:00,
2013-04-14 09:46:00,33.0,29.0,29.78,East,90,9.0,16.0,85,0.01,,,-99.99,Weather View 32 v60,2013-04-14 13:46:00,
2013-04-14 09:56:00,33.0,29.0,29.78,SE,135,8.0,16.0,85,0.01,,,-99.99,Weather View 32 v60,2013-04-14 13:56:00,
2013-04-14 10:01:00,33.0,29.0,29.78,SE,135,8.0,16.0,85,0.01,,,-99.99,Weather View 32 v60,2013-04-14 14:01:00,
2013-04-14 10:06:00,33.0,29.0,29.77,SE,135,9.0,16.0,85,0.01,,,-99.99,Weather View 32 v60,2013-04-14 14:06:00,
2013-04-14 10:11:00,34.0,29.7,29.77,SE,135,5.0,16.0,84,0.01,,,-99.99,Weather View 32 v60,2013-04-14 14:11:00,
2013-04-14 10:21:00,34.0,29.7,29.77,South,180,5.0,18.0,84,0.00,,,-99.99,Weather View 32 v60,2013-04-14 14:21:00,
2013-04-14 10:31:00,34.0,30.3,29.78,SE,135,7.0,20.0,86,0.00,,,-99.99,Weather View 32 v60,2013-04-14 14:31:00,
2013-04-14 10:36:00,34.0,30.3,29.79,South,180,8.0,20.0,86,0.00,,,-99.99,Weather View 32 v60,2013-04-14 14:36:00,
2013-04-14 10:41:00,34.0,30.3,29.79,ESE,112,7.0,20.0,86,0.00,,,-99.99,Weather View 32 v60,2013-04-14 14:41:00,
2013-04-14 10:46:00,34.0,30.3,29.80,SE,135,10.0,20.0,86,0.00,,,-99.99,Weather View 32 v60,2013-04-14 14:46:00,
2013-04-14 10:51:00,34.0,30.3,29.80,SE,135,8.0,20.0,86,0.00,,,-99.99,Weather View 32 v60,2013-04-14 14:51:00,
2013-04-14 10:56:00,34.0,30.3,29.81,SE,135,7.0,20.0,86,0.00,,,-99.99,Weather View 32 v60,2013-04-14 14:56:00,
2013-04-14 11:01:00,34.0,30.5,29.81,South,180,7.0,20.0,87,0.00,,,-99.99,Weather View 32 v60,2013-04-14 15:01:00,
2013-04-14 11:11:00,34.0,30.3,29.82,SE,135,6.0,22.0,86,0.00,,,-99.99,Weather View 32 v60,2013-04-14 15:11:00,
2013-04-14 11:21:00,34.0,30.3,29.83,SE,135,7.0,22.0,86,0.01,,,-99.99,Weather View 32 v60,2013-04-14 15:21:00,
2013-04-14 11:36:00,34.0,30.3,29.83,SE,135,13.0,22.0,86,0.01,,,-99.99,Weather View 32 v60,2013-04-14 15:36:00,
2013-04-14 11:41:00,34.0,30.3,29.83,SE,135,11.0,22.0,86,0.01,,,-99.99,Weather View 32 v60,2013-04-14 15:41:00,
2013-04-14 11:51:00,33.0,29.0,29.84,SE,135,15.0,22.0,85,0.02,,,-99.99,Weather View 32 v60,2013-04-14 15:51:00,
2013-04-14 12:01:00,33.0,28.7,29.83,ESE,112,7.0,22.0,84,0.03,,,-99.99,Weather View 32 v60,2013-04-14 16:01:00,
2013-04-14 12:11:00,33.0,28.7,29.84,SE,135,8.0,21.0,84,0.04,,,-99.99,Weather View 32 v60,2013-04-14 16:11:00,
2013-04-14 12:17:00,33.0,29.0,29.82,SE,135,12.0,25.0,85,0.04,,,-99.99,Weather View 32 v60,2013-04-14 16:17:00,
2013-04-14 12:26:00,33.0,29.0,29.81,SE,135,6.0,25.0,85,0.05,,,-99.99,Weather View 32 v60,2013-04-14 16:26:00,
2013-04-14 12:31:00,33.0,28.7,29.81,SE,135,17.0,25.0,84,0.06,,,-99.99,Weather View 32 v60,2013-04-14 16:31:00,
2013-04-14 12:41:00,34.0,29.4,29.80,SE,135,6.0,25.0,83,0.06,,,-99.99,Weather View 32 v60,2013-04-14 16:41:00,
2013-04-14 12:46:00,34.0,29.4,29.79,East,90,11.0,25.0,83,0.05,,,-99.99,Weather View 32 v60,2013-04-14 16:46:00,
2013-04-14 12:51:00,35.0,30.1,29.79,SE,135,12.0,25.0,82,0.05,,,-99.99,Weather View 32 v60,2013-04-14 16:51:00,
2013-04-14 13:01:00,35.0,29.8,29.78,SE,135,16.0,25.0,81,0.04,,,-99.99,Weather View 32 v60,2013-04-14 17:01:00,
2013-04-14 13:06:00,36.0,30.7,29.78,SE,135,9.0,29.0,81,0.04,,,-99.99,Weather View 32 v60,2013-04-14 17:06:00,
2013-04-14 13:11:00,36.0,30.7,29.78,SE,135,7.0,29.0,81,0.03,,,-99.99,Weather View 32 v60,2013-04-14 17:11:00,
2013-04-14 13:17:00,37.0,31.7,29.78,SE,135,9.0,29.0,81,0.02,,,-99.99,Weather View 32 v60,2013-04-14 17:17:00,
2013-04-14 13:26:00,37.0,31.7,29.77,SE,135,18.0,29.0,81,0.01,,,-99.99,Weather View 32 v60,2013-04-14 17:26:00,
2013-04-14 13:31:00,37.0,32.0,29.77,ESE,112,18.0,29.0,82,0.00,,,-99.99,Weather View 32 v60,2013-04-14 17:31:00,
2013-04-14 13:41:00,37.0,32.3,29.75,SE,135,25.0,29.0,83,0.00,,,-99.99,Weather View 32 v60,2013-04-14 17:41:00,
2013-04-14 13:46:00,38.0,32.1,29.74,East,90,10.0,29.0,79,0.00,,,-99.99,Weather View 32 v60,2013-04-14 17:46:00,
2013-04-14 13:56:00,39.0,34.3,29.73,East,90,18.0,32.0,83,0.00,,,-99.99,Weather View 32 v60,2013-04-14 17:56:00,
2013-04-14 14:01:00,39.0,33.7,29.73,East,90,11.0,32.0,81,0.00,,,-99.99,Weather View 32 v60,2013-04-14 18:01:00,
2013-04-14 14:06:00,40.0,35.2,29.72,SE,135,14.0,36.0,83,0.00,,,-99.99,Weather View 32 v60,2013-04-14 18:06:00,
2013-04-14 14:11:00,40.0,34.3,29.72,East,90,9.0,36.0,80,0.00,,,-99.99,Weather View 32 v60,2013-04-14 18:11:00,
2013-04-14 14:18:00,41.0,35.9,29.72,SE,135,12.0,36.0,82,0.00,,,-99.99,Weather View 32 v60,2013-04-14 18:18:00,
2013-04-14 14:26:00,42.0,37.2,29.71,ESE,112,19.0,36.0,83,0.00,,,-99.99,Weather View 32 v60,2013-04-14 18:26:00,
2013-04-14 14:31:00,42.0,37.2,29.71,SE,135,13.0,39.0,83,0.00,,,-99.99,Weather View 32 v60,2013-04-14 18:31:00,
2013-04-14 14:41:00,43.0,38.5,29.70,SE,135,27.0,39.0,84,0.00,,,-99.99,Weather View 32 v60,2013-04-14 18:41:00,
2013-04-14 14:46:00,43.0,37.9,29.69,SE,135,8.0,39.0,82,0.00,,,-99.99,Weather View 32 v60,2013-04-14 18:46:00,
2013-04-14 14:51:00,44.0,39.5,29.69,SE,135,23.0,39.0,84,0.00,,,-99.99,Weather View 32 v60,2013-04-14 18:51:00,
2013-04-14 15:01:00,44.0,39.2,29.68,ESE,112,12.0,39.0,83,0.00,,,-99.99,Weather View 32 v60,2013-04-14 19:01:00,
2013-04-14 15:11:00,44.0,38.9,29.68,SE,135,12.0,39.0,82,0.00,,,-99.99,Weather View 32 v60,2013-04-14 19:11:00,
2013-04-14 15:16:00,45.0,39.8,29.67,SE,135,3.0,39.0,82,0.00,,,-99.99,Weather View 32 v60,2013-04-14 19:16:00,
2013-04-14 15:21:00,45.0,39.8,29.67,SE,135,14.0,39.0,82,0.00,,,-99.99,Weather View 32 v60,2013-04-14 19:21:00,
2013-04-14 15:26:00,45.0,39.8,29.66,SE,135,17.0,39.0,82,0.00,,,-99.99,Weather View 32 v60,2013-04-14 19:26:00,
2013-04-14 15:31:00,46.0,40.5,29.66,SE,135,8.0,34.0,81,0.00,,,-99.99,Weather View 32 v60,2013-04-14 19:31:00,
2013-04-14 15:36:00,46.0,40.8,29.65,SE,135,11.0,34.0,82,0.00,,,-99.99,Weather View 32 v60,2013-04-14 19:36:00,
2013-04-14 15:41:00,47.0,41.8,29.65,SSE,157,14.0,34.0,82,0.00,,,-99.99,Weather View 32 v60,2013-04-14 19:41:00,
2013-04-14 15:56:00,47.0,41.5,29.63,ESE,112,23.0,29.0,81,0.00,,,-99.99,Weather View 32 v60,2013-04-14 19:56:00,
2013-04-14 16:01:00,47.0,41.1,29.63,SSE,157,11.0,29.0,80,0.00,,,-99.99,Weather View 32 v60,2013-04-14 20:01:00,
2013-04-14 16:11:00,48.0,42.1,29.63,SE,135,14.0,29.0,80,0.00,,,-99.99,Weather View 32 v60,2013-04-14 20:11:00,
2013-04-14 16:16:00,48.0,41.8,29.62,East,90,10.0,29.0,79,0.00,,,-99.99,Weather View 32 v60,2013-04-14 20:16:00,
2013-04-14 16:21:00,48.0,41.8,29.62,SE,135,20.0,30.0,79,0.00,,,-99.99,Weather View 32 v60,2013-04-14 20:21:00,
2013-04-14 16:41:00,49.0,42.4,29.59,East,90,12.0,33.0,78,0.00,,,-99.99,Weather View 32 v60,2013-04-14 20:41:00,
2013-04-14 16:51:00,50.0,42.0,29.60,SE,135,22.0,33.0,74,0.00,,,-99.99,Weather View 32 v60,2013-04-14 20:51:00,
2013-04-14 17:01:00,50.0,41.7,29.59,SE,135,10.0,34.0,73,0.00,,,-99.99,Weather View 32 v60,2013-04-14 21:01:00,
2013-04-14 17:06:00,50.0,41.7,29.58,ESE,112,16.0,37.0,73,0.00,,,-99.99,Weather View 32 v60,2013-04-14 21:06:00,
2013-04-14 17:19:00,51.0,42.3,29.57,SSE,157,26.0,37.0,72,0.00,,,-99.99,Weather View 32 v60,2013-04-14 21:19:00,
2013-04-14 17:26:00,51.0,42.3,29.57,SE,135,12.0,37.0,72,0.00,,,-99.99,Weather View 32 v60,2013-04-14 21:26:00,
2013-04-14 17:31:00,51.0,42.6,29.57,ESE,112,11.0,46.0,73,0.00,,,-99.99,Weather View 32 v60,2013-04-14 21:31:00,
2013-04-14 17:36:00,51.0,42.6,29.56,SE,135,8.0,46.0,73,0.00,,,-99.99,Weather View 32 v60,2013-04-14 21:36:00,
2013-04-14 17:46:00,52.0,42.9,29.55,SE,135,13.0,46.0,71,0.00,,,-99.99,Weather View 32 v60,2013-04-14 21:46:00,
2013-04-14 17:51:00,52.0,42.5,29.55,SE,135,17.0,46.0,70,0.00,,,-99.99,Weather View 32 v60,2013-04-14 21:51:00,
2013-04-14 18:01:00,52.0,42.5,29.55,South,180,18.0,46.0,70,0.00,,,-99.99,Weather View 32 v60,2013-04-14 22:01:00,
2013-04-14 18:11:00,53.0,42.7,29.55,SSE,157,14.0,46.0,68,0.00,,,-99.99,Weather View 32 v60,2013-04-14 22:11:00,
2013-04-14 18:16:00,53.0,42.3,29.55,SE,135,11.0,46.0,67,0.00,,,-99.99,Weather View 32 v60,2013-04-14 22:16:00,
2013-04-14 18:26:00,53.0,42.3,29.55,SSE,157,14.0,46.0,67,0.00,,,-99.99,Weather View 32 v60,2013-04-14 22:26:00,
2013-04-14 18:31:00,54.0,42.5,29.55,SE,135,15.0,41.0,65,0.00,,,-99.99,Weather View 32 v60,2013-04-14 22:31:00,
2013-04-14 18:36:00,54.0,42.1,29.54,ESE,112,17.0,41.0,64,0.00,,,-99.99,Weather View 32 v60,2013-04-14 22:36:00,
2013-04-14 18:46:00,54.0,42.1,29.54,SE,135,19.0,41.0,64,0.00,,,-99.99,Weather View 32 v60,2013-04-14 22:46:00,
2013-04-14 18:51:00,54.0,42.1,29.54,ESE,112,17.0,41.0,64,0.00,,,-99.99,Weather View 32 v60,2013-04-14 22:51:00,
2013-04-14 19:01:00,54.0,42.1,29.54,SE,135,14.0,41.0,64,0.00,,,-99.99,Weather View 32 v60,2013-04-14 23:01:00,
2013-04-14 19:11:00,54.0,42.1,29.53,South,180,15.0,41.0,64,0.00,,,-99.99,Weather View 32 v60,2013-04-14 23:11:00,
2013-04-14 19:16:00,54.0,42.5,29.53,SSE,157,11.0,41.0,65,0.00,,,-99.99,Weather View 32 v60,2013-04-14 23:16:00,
2013-04-14 19:26:00,54.0,42.9,29.54,SSE,157,16.0,36.0,66,0.00,,,-99.99,Weather View 32 v60,2013-04-14 23:26:00,
2013-04-14 19:36:00,54.0,42.9,29.53,SE,135,20.0,36.0,66,0.00,,,-99.99,Weather View 32 v60,2013-04-14 23:36:00,
2013-04-14 19:41:00,53.0,41.9,29.53,SE,135,10.0,40.0,66,0.00,,,-99.99,Weather View 32 v60,2013-04-14 23:41:00,
2013-04-14 19:51:00,53.0,42.3,29.54,SSE,157,13.0,40.0,67,0.00,,,-99.99,Weather View 32 v60,2013-04-14 23:51:00,
2013-04-14 19:56:00,53.0,42.7,29.53,ESE,112,6.0,40.0,68,0.00,,,-99.99,Weather View 32 v60,2013-04-14 23:56:00,
2013-04-14 20:01:00,53.0,43.1,29.53,ESE,112,9.0,40.0,69,0.00,,,-99.99,Weather View 32 v60,2013-04-15 00:01:00,
2013-04-14 20:11:00,52.0,42.9,29.54,SE,135,19.0,42.0,71,0.00,,,-99.99,Weather View 32 v60,2013-04-15 00:11:00,
2013-04-14 20:16:00,52.0,43.2,29.53,SE,135,26.0,42.0,72,0.00,,,-99.99,Weather View 32 v60,2013-04-15 00:16:00,
2013-04-14 20:21:00,52.0,43.2,29.53,SE,135,18.0,44.0,72,0.00,,,-99.99,Weather View 32 v60,2013-04-15 00:21:00,
2013-04-14 20:26:00,52.0,43.6,29.53,SE,135,23.0,51.0,73,0.00,,,-99.99,Weather View 32 v60,2013-04-15 00:26:00,
2013-04-14 20:36:00,52.0,44.3,29.53,SE,135,27.0,51.0,75,0.00,,,-99.99,Weather View 32 v60,2013-04-15 00:36:00,
2013-04-14 20:41:00,51.0,43.3,29.53,SE,135,25.0,52.0,75,0.00,,,-99.99,Weather View 32 v60,2013-04-15 00:41:00,
2013-04-14 20:46:00,51.0,43.3,29.52,SE,135,19.0,52.0,75,0.00,,,-99.99,Weather View 32 v60,2013-04-15 00:46:00,
2013-04-14 20:56:00,51.0,44.0,29.54,SE,135,19.0,52.0,77,0.00,,,-99.99,Weather View 32 v60,2013-04-15 00:56:00,
2013-04-14 21:01:00,51.0,44.0,29.54,SE,135,9.0,52.0,77,0.00,,,-99.99,Weather View 32 v60,2013-04-15 01:01:00,
2013-04-14 21:06:00,51.0,44.0,29.53,SE,135,22.0,52.0,77,0.00,,,-99.99,Weather View 32 v60,2013-04-15 01:06:00,
2013-04-14 21:11:00,51.0,44.0,29.53,SE,135,30.0,61.0,77,0.00,,,-99.99,Weather View 32 v60,2013-04-15 01:11:00,
2013-04-14 21:16:00,51.0,44.4,29.53,SE,135,27.0,61.0,78,0.00,,,-99.99,Weather View 32 v60,2013-04-15 01:16:00,
2013-04-14 21:22:00,50.0,43.4,29.53,SE,135,9.0,61.0,78,0.00,,,-99.99,Weather View 32 v60,2013-04-15 01:22:00,
2013-04-14 21:31:00,50.0,43.4,29.51,SE,135,16.0,61.0,78,0.00,,,-99.99,Weather View 32 v60,2013-04-15 01:31:00,
2013-04-14 21:36:00,50.0,43.4,29.52,SE,135,21.0,61.0,78,0.00,,,-99.99,Weather View 32 v60,2013-04-15 01:36:00,
2013-04-14 21:41:00,50.0,43.4,29.52,SSE,157,16.0,61.0,78,0.00,,,-99.99,Weather View 32 v60,2013-04-15 01:41:00,
2013-04-14 21:46:00,50.0,43.7,29.52,SE,135,27.0,61.0,79,0.00,,,-99.99,Weather View 32 v60,2013-04-15 01:46:00,
2013-04-14 21:51:00,49.0,42.8,29.52,SSW,202,10.0,61.0,79,0.00,,,-99.99,Weather View 32 v60,2013-04-15 01:51:00,
2013-04-14 22:01:00,49.0,43.1,29.52,SE,135,42.0,61.0,80,0.00,,,-99.99,Weather View 32 v60,2013-04-15 02:01:00,
2013-04-14 22:06:00,49.0,43.1,29.52,SE,135,19.0,61.0,80,0.00,,,-99.99,Weather View 32 v60,2013-04-15 02:06:00,
2013-04-14 22:11:00,49.0,43.1,29.52,East,90,17.0,53.0,80,0.00,,,-99.99,Weather View 32 v60,2013-04-15 02:11:00,
2013-04-14 22:16:00,49.0,43.1,29.53,SE,135,16.0,53.0,80,0.00,,,-99.99,Weather View 32 v60,2013-04-15 02:16:00,
2013-04-14 22:21:00,49.0,43.1,29.53,SSE,157,22.0,53.0,80,0.00,,,-99.99,Weather View 32 v60,2013-04-15 02:21:00,
2013-04-14 22:26:00,49.0,43.4,29.52,ESE,112,22.0,53.0,81,0.00,,,-99.99,Weather View 32 v60,2013-04-15 02:26:00,
2013-04-14 22:31:00,49.0,43.4,29.52,ESE,112,19.0,53.0,81,0.00,,,-99.99,Weather View 32 v60,2013-04-15 02:31:00,
2013-04-14 22:36:00,49.0,43.4,29.52,SE,135,21.0,51.0,81,0.00,,,-99.99,Weather View 32 v60,2013-04-15 02:36:00,
2013-04-14 22:46:00,49.0,43.4,29.52,SSE,157,19.0,51.0,81,0.00,,,-99.99,Weather View 32 v60,2013-04-15 02:46:00,
2013-04-14 22:51:00,49.0,43.4,29.52,SE,135,27.0,51.0,81,0.00,,,-99.99,Weather View 32 v60,2013-04-15 02:51:00,
2013-04-14 23:01:00,49.0,43.4,29.51,SE,135,16.0,51.0,81,0.00,,,-99.99,Weather View 32 v60,2013-04-15 03:01:00,
2013-04-14 23:06:00,49.0,43.4,29.51,ESE,112,22.0,43.0,81,0.00,,,-99.99,Weather View 32 v60,2013-04-15 03:06:00,
2013-04-14 23:11:00,49.0,43.4,29.51,South,180,10.0,43.0,81,0.00,,,-99.99,Weather View 32 v60,2013-04-15 03:11:00,
2013-04-14 23:16:00,49.0,43.4,29.51,SE,135,15.0,43.0,81,0.00,,,-99.99,Weather View 32 v60,2013-04-15 03:16:00,
2013-04-14 23:23:00,49.0,43.4,29.51,SE,135,29.0,43.0,81,0.00,,,-99.99,Weather View 32 v60,2013-04-15 03:23:00,
2013-04-14 23:31:00,49.0,43.4,29.51,SSE,157,18.0,43.0,81,0.00,,,-99.99,Weather View 32 v60,2013-04-15 03:31:00,
2013-04-14 23:41:00,48.0,42.4,29.51,SSE,157,21.0,41.0,81,0.00,,,-99.99,Weather View 32 v60,2013-04-15 03:41:00,
2013-04-14 23:51:00,48.0,42.4,29.51,SE,135,12.0,41.0,81,0.00,,,-99.99,Weather View 32 v60,2013-04-15 03:51:00,
2013-04-14 23:56:00,48.0,42.4,29.51,SE,135,16.0,41.0,81,0.00,,,-99.99,Weather View 32 v60,2013-04-15 03:56:00,